{"data":{"norad_id":66118,"intl_designator":"2025-237E","name":"STARLINK-35468","alt_names":[],"object_type":"PAYLOAD","status":"ACTIVE","operator":null,"country":"US","launch_date":"2025-10-22","launch_site_code":"AFWTR","launch_vehicle":null,"mission":null,"orbit_class":"UNKNOWN","rcs_meters":null,"size_class":null,"mass_kg":null,"dimensions":null,"purposes":["comms"],"wikipedia_slug":null,"has_3d_model":false,"image_url":null,"decayed_at":null,"tle_current":{"epoch":"2026-09-19T13:59:47.132160Z","epoch_age_seconds":179660,"freshness":"STALE","line1":"1 66118U 25237E   26262.58318440  .00016823  00000+0  50804-3 0  9991","line2":"2 66118  53.1570 217.7967 0000967  94.7530 265.3583 15.34391302 52307","mean_motion":15.34391302,"eccentricity":9.67e-5,"inclination_deg":53.157,"raan_deg":217.7967,"arg_perigee_deg":94.753,"mean_anomaly_deg":265.3583,"bstar":0.00050804,"rev_number":5230,"period_min":93.848290075878,"perigee_km":462.06758086709,"apogee_km":463.39060436941,"semimajor_km":6840.8660926182,"source":"CELESTRAK","updated_at":"2026-09-21T09:00:35.806984Z"}}}